AMC-14

Last updated on Tue Oct 08 2024 00:02:38 GMT+0000 (Coordinated Universal Time)

1 32708U 08011A 24280.97450475 .00000082 00000+0 00000+0 0 9995 2 32708 23.2361 27.9548 0033541 358.8881 357.5482 1.00274357 61966
UTC large
Height (km)
Speed (km/s)
/
Latitude / Longitude
Inclination (degrees)
Orbital Period (minutes)
Azimuth
Elevation
Range (km)
Doppler Factor

Next 0 passes for location: London (51.5072 / 0.1276)

Sorry there are no passes over London.